Regional Weather Roundup
Issued by NWS

Home | Current Version | Previous Version | Text Only | Print | Product List | Glossary On
Versions: 1 2 3 4 5 6 7 8 9 10 11 12 13 14 15 16 17 18 19 20 21 22 23 24 25 26 27 28 29 30 31 32 33 34 35 36 37 38 39 40 41 42 43 44 45 46 47 48 49 50
000
ASUS44 KFWD 281315
RWRTX
NORTH TEXAS HOURLY WEATHER ROUNDUP
NATIONAL WEATHER SERVICE FORT WORTH TX
800 AM CDT TUE APR 28 2015

NOTE: "FAIR" INDICATES FEW OR NO CLOUDS BELOW 12,000 FEET WITH NO
SIGNIFICANT WEATHER AND/OR OBSTRUCTIONS TO VISIBILITY.

TXZ118-119-281400-
DALLAS/FORT WORTH METROPLEX

CITY           SKY/WX    TMP DP  RH WIND       PRES   REMARKS
DFW AIRPORT    LGT RAIN  53  48  83 N15       30.00R
DALLAS LOVE    CLOUDY    55  48  77 N15       30.01R
FTW MEACHAM    LGT RAIN  53  49  86 N15       30.01R
DAL-EXECUTIVE  LGT RAIN  54  48  80 N7        29.99R
FTW-ALLIANCE   LGT RAIN  53  48  83 N13       30.02R
FTW-NAS-JRB    CLOUDY    54  50  86 N12       30.03R
FTW-SPINKS     CLOUDY    54  48  82 N9        30.02R
ARLINGTON      LGT RAIN  55  48  77 N10       30.00R
GRAND PRAIRIE  PTSUNNY   54  50  87 N8        30.02R
ADDISON        LGT RAIN  54  48  82 N9        30.01R
MESQUITE       CLOUDY    54  48  82 N13       30.00R
LANCASTER      CLOUDY    53  47  79 N6        30.00R
$$

TXZ091>094-102>105-117-120-121-131>134-281400-
NORTH CENTRAL TEXAS

CITY           SKY/WX    TMP DP  RH WIND       PRES   REMARKS
SHRMAN/DENISON CLOUDY    54  51  92 NE10      30.06R
GAINESVILLE    LGT RAIN  51  47  86 N8G18     30.08R
BOWIE          CLOUDY    50  47  91 N10       30.07R
BRIDGEPORT     CLOUDY    52  49  90 N8        30.07R
DECATUR        CLOUDY    51  47  87 N8G16     30.04R
DENTON         CLOUDY    53  48  83 N12       30.03R
MCKINNEY       CLOUDY    53  48  83 N13       30.01R
GREENVILLE     CLOUDY    54  46  76 N8        30.01R
ROCKWALL       CLOUDY    54  49  83 N13       29.98R
TERRELL        CLOUDY    55  49  80 NE10      29.99R
WAXAHACHIE     DRIZZLE   52  50  92 CALM      30.00R
CLEBURNE       LGT RAIN  52  52 100 N13       30.01R
GRANBURY       LGT RAIN  53  51  90 NW9       30.03R
$$

TXZ083>090-098>101-113>116-127>130-139>142-154-155-281400-
WESTERN NORTH TEXAS

CITY           SKY/WX    TMP DP  RH WIND       PRES   REMARKS
WICHITA FALLS  CLOUDY    51  47  86 N13       30.11R
WF-KICKAPOO    CLOUDY    53  49  86 N13G18    30.12R
VERNON         CLOUDY    51  44  78 N15       30.16R
ABILENE        LGT RAIN  49  49 100 N15       30.10R
ABILENE-DYESS  LGT RAIN  48  48 100 N16G23    30.09R
BRECKENRIDGE   LGT RAIN  51  50  97 N13       30.08R
GRAHAM         CLOUDY    50  48  93 N10       30.06R
MINERAL WELLS  LGT RAIN  51  49  92 N10       30.03R
STEPHENVILLE   CLOUDY    51  48  91 N13       30.04R
COMANCHE       LGT RAIN  50  50 100 N13G20    30.03R
BROWNWOOD      CLOUDY    50  48  93 N12G18    30.04R
COLEMAN        LGT RAIN  50  49  97 N15       30.06R
$$

TXZ143>147-156>162-174-175-281400-
CENTRAL TEXAS

CITY           SKY/WX    TMP DP  RH WIND       PRES   REMARKS
WACO           LGT RAIN  53  51  93 N9        29.96R FOG
WACO-TSTC      LGT RAIN  54  54 100 N12       29.97R
WACO-MCGREGOR  CLOUDY    54  46  76 N12G17    29.98R
HILLSBORO      LGT RAIN  52  49  90 N10       29.98R
CORSICANA      CLOUDY    54  50  86 N10       29.98R
MEXIA          CLOUDY    54  53  96 MISG      29.93R
HEARNE         CLOUDY    58  57  98 NW8       29.93R FOG
CAMERON        CLOUDY    57  56  96 NW12      29.94R FOG
TEMPLE         CLOUDY    54  48  82 N9        29.95R
KILLEEN        CLOUDY    55  53  92 N12       29.95R
KILLEEN-SKYLRK CLOUDY    55  48  76 N10       29.96R
FORT HOOD      CLOUDY    55  52  92 N12       29.95R
GATESVILLE     PTSUNNY   54  52  94 N8        30.00R
LAMPASAS       CLOUDY    55  54  95 N13       29.97R
$$

TXZ095>097-106>112-122>126-135>138-148>153-164>167-281400-
EAST TEXAS

CITY           SKY/WX    TMP DP  RH WIND       PRES   REMARKS
PARIS          CLOUDY    54  45  71 MISG      30.02R
SULPHUR SPRNGS CLOUDY    54  50  86 N10       30.01R
MOUNT PLEASANT CLOUDY   N/A N/A N/A N7        29.99R
GILMER         CLOUDY    52  50  92 N6        29.96R
MINEOLA        CLOUDY    54  52  94 N3        29.98R
TYLER          PTSUNNY   53  49  86 N10       29.95R
LONGVIEW       MOSUNNY   54  49  83 NE9       29.93R
MARSHALL       MOSUNNY   56  52  88 NE3       29.95R
ATHENS         CLOUDY    52  48  87 N8        29.96R
PALESTINE      CLOUDY   N/A N/A N/A N6        29.96R
JACKSONVILLE   CLOUDY    53  51  93 NE7       29.94R
HENDERSON      PTSUNNY   53  51  94 NE8       29.93R
NACOGDOCHES    CLOUDY    54  50  87 N5        29.90R
LUFKIN         SUNNY     59  53  80 N7        29.90R
$$

SUPPLEMENTAL OBSERVATIONS (CENTRAL)

CITY           SKY/WX    TMP DP  RH WIND       PRES   REMARKS
LAKE TEXOMA      N/A     52  48  87 N12         N/A
CADDO GRASSLND   N/A     52  46  82 N5          N/A
PAT MAYSE LAKE   N/A     52  48  87 NW8         N/A
GREENVILLE       N/A     54  48  82 N12         N/A
CEDAR HILL       N/A     54  48  82 NE7         N/A
ATHENS           N/A     54  50  87 N3          N/A
LAKE LIMESTONE   N/A     55  50  82 NE10        N/A
MCGREGOR         N/A     54  50  87 N7G15       N/A
TEMPLE           N/A     55  50  82 N2          N/A
$$

SUPPLEMENTAL OBSERVATIONS (WEST)

CITY           SKY/WX    TMP DP  RH WIND       PRES   REMARKS
MILLERS CREEK    N/A     50  46  87 N10         N/A
POSSUM KINGDOM   N/A     50  46  87 N10         N/A
LBJ GRASSLAND    N/A     52  46  82 N8          N/A
GRANBURY         N/A     52  48  87 N10         N/A
COMANCHE         N/A     50  46  87 N15         N/A
HAMBY            N/A     48  45  87 N10         N/A
IVIE RESERVOIR   N/A     52  48  87 N14         N/A
COLORADO BEND    N/A     54  52  94 NE6G15      N/A
$$

SUPPLEMENTAL OBSERVATIONS (EAST)

CITY           SKY/WX    TMP DP  RH WIND       PRES   REMARKS
TEXARKANA        N/A     54  48  82 NE6G14      N/A
LINDEN           N/A     54  48  82 NE1         N/A
CADDO LAKE       N/A     54  50  87 VRB3G12     N/A
LUFKIN           N/A     55  52  88 MISG        N/A
N SABINE NF      N/A     55  50  82 MISG        N/A
$$

SUPPLEMENTAL OBSERVATIONS ARE A COLLECTION OF AUTOMATED INSTRUMENTS
THAT ARE MAINTAINED BY A VARIETY OF FEDERAL AND STATE AGENCIES.
CERTAIN ELEMENTS...SUCH AS HUMIDITY VALUES AND SUSTAINED WIND
SPEEDS...MAY BE APPROXIMATED.




USA.gov is the U.S. government's official web portal to all federal, state and local government web resources and services.